Dallesport, WA

6:01 PM PDT on September 28, 2016 (GMT -0700)
Columbia Gorge Regional-The Dalles

Weather History for KDLS - July, 2013

Change the Weather History Date:

Thursday, July 25, 2013

  Actual Average Record
Temperature  
Mean Temperature 80 °F -  
Max Temperature 99 °F 89 °F 107 °F (1996)
Min Temperature 61 °F 60 °F 52 °F (1948)
Cooling Degree Days 14    
Growing Degree Days 30 (Base 50)    
Moisture  
Dew Point 49 °F    
Average Humidity 35    
Maximum Humidity 54    
Minimum Humidity 18    
Precipitation  
Precipitation 0.00 in - - ()
Sea Level Pressure  
Sea Level Pressure 29.93 in    
Wind  
Wind Speed 9 mph (NW)    
Max Wind Speed 22 mph    
Max Gust Speed 31 mph    
Visibility 10 miles    
Events      
Averages and records for this station are not official NWS values.
T = Trace of Precipitation, MM = Missing Value Source: NWS Daily Summary

Daily Weather History Graph

Daily Weather History Graph

Search for Another Location

Airport or City:

Trip Planner

Search our weather history database for the weather conditions in past years. The results will help you decide how hot, cold, wet, or windy it might be!

Date:

Astronomy

Jul. 25, 2013 Rise Set
Actual Time 5:40 AM PDT 8:41 PM PDT
Civil Twilight 5:05 AM PDT 9:16 PM PDT
Nautical Twilight 4:20 AM PDT 10:00 PM PDT
Astronomical Twilight 3:25 AM PDT 10:54 PM PDT
Moon 10:08 PM PDT (7/25) 9:30 AM PDT (7/25)
Length of Visible Light 16h 10m
Length of Day
15h 00m
Waning Gibbous, 87% of the Moon is Illuminated
Jul 25
Waning Gibbous
Jul 29
Last Quarter
Aug 6
New
Aug 14
First Quarter
Aug 20
Full

Hourly Weather History & Observations

Time (PDT) Temp. Heat Index Dew Point Humidity Pressure Visibility Wind Dir Wind Speed Gust Speed Precip Events Conditions
12:53 AM 75.9 °F - 51.1 °F 42% 29.91 in 10.0 mi WNW 10.4 mph - N/A   Clear
1:53 AM 73.9 °F - 52.0 °F 46% 29.92 in 10.0 mi NW 11.5 mph - N/A   Clear
2:53 AM 71.1 °F - 50.0 °F 47% 29.94 in 10.0 mi WNW 5.8 mph - N/A   Clear
3:53 AM 61.0 °F - 44.1 °F 54% 29.95 in 10.0 mi SE 5.8 mph - N/A   Clear
4:53 AM 64.0 °F - 37.9 °F 38% 29.95 in 10.0 mi Calm Calm - N/A   Clear
5:53 AM 61.0 °F - 42.1 °F 50% 29.96 in 10.0 mi Calm Calm - N/A   Clear
6:53 AM 66.0 °F - 43.0 °F 43% 29.97 in 10.0 mi Calm Calm - N/A   Clear
7:53 AM 71.1 °F - 46.9 °F 42% 29.98 in 10.0 mi SW 3.5 mph - N/A   Clear
8:53 AM 75.0 °F - 52.0 °F 44% 29.99 in 10.0 mi WSW 3.5 mph - N/A   Clear
9:53 AM 80.1 °F - 52.0 °F 38% 29.98 in 10.0 mi Variable 3.5 mph - N/A   Clear
10:53 AM 84.0 °F - 48.9 °F 29% 29.96 in 10.0 mi Calm Calm - N/A   Clear
11:53 AM 88.0 °F - 50.0 °F 27% 29.95 in 10.0 mi NNW 17.3 mph 23.0 mph N/A   Clear
12:53 PM 93.0 °F - 45.0 °F 19% 29.94 in 10.0 mi NNW 21.9 mph 27.6 mph N/A   Clear
1:53 PM 95.0 °F - 45.0 °F 18% 29.92 in 10.0 mi NNW 20.7 mph 31.1 mph N/A   Clear
2:53 PM 98.1 °F - 46.9 °F 18% 29.91 in 10.0 mi NNW 15.0 mph 19.6 mph N/A   Clear
3:53 PM 98.1 °F - 50.0 °F 20% 29.90 in 10.0 mi NW 15.0 mph 25.3 mph N/A   Clear
4:53 PM 96.1 °F 93.5 °F 53.1 °F 23% 29.89 in 10.0 mi NW 16.1 mph 23.0 mph N/A   Clear
5:53 PM 93.9 °F 91.4 °F 53.1 °F 25% 29.89 in 10.0 mi NW 15.0 mph 23.0 mph N/A   Clear
6:53 PM 91.0 °F 88.5 °F 53.1 °F 27% 29.88 in 10.0 mi NW 19.6 mph 28.8 mph N/A   Clear
7:53 PM 87.1 °F 85.1 °F 54.0 °F 32% 29.89 in 10.0 mi NW 17.3 mph - N/A   Clear
8:53 PM 84.0 °F 82.6 °F 54.0 °F 35% 29.91 in 10.0 mi NW 15.0 mph - N/A   Clear
9:53 PM 82.0 °F 81.3 °F 54.0 °F 38% 29.93 in 10.0 mi WNW 9.2 mph - N/A   Clear
10:53 PM 80.1 °F 80.1 °F 55.0 °F 42% 29.94 in 10.0 mi NW 12.7 mph - N/A   Clear
11:53 PM 78.1 °F - 54.0 °F 43% 29.94 in 10.0 mi NNW 13.8 mph 20.7 mph N/A   Clear